START_TIME,STEP,MOV.,M6,t_acc.,M7,t_acc.,M19,t_acc.,H36,t_acc.
1981-08-29 03:00:27.750 ,7,1,0.,12.0,0.,12.0,0.,12.0,0.,12.0
1981-08-29 03:00:39.750 ,7,1,0.,12.0,0.,12.0,0.,12.0,0.,12.0
1981-08-29 03:00:51.750 ,7,1,0.,12.0,0.,12.0,0.,12.0,0.,12.0
1981-08-29 03:01:03.750 ,7,1,0.,12.0,0.,12.0,0.,12.0,0.,12.0
1981-08-29 03:01:15.750 ,7,0,0.,12.0,0.,12.0,0.,12.0,0.,12.0
1981-08-29 03:01:27.750 ,7,0,0.,12.0,0.,12.0,0.,12.0,0.,12.0
1981-08-29 03:01:39.750 ,6,1,0.,12.0,0.,12.0,0.,12.0,0.,12.0
1981-08-29 03:01:51.750 ,6,1,0.,12.0,0.,12.0,0.,12.0,0.,12.0
1981-08-29 03:02:03.750 ,6,0,0.,12.0,0.,12.0,0.,12.0,0.,12.0
1981-08-29 03:02:15.750 ,6,0,0.,12.0,0.,12.0,0.,12.0,0.,12.0
1981-08-29 03:02:27.750 ,5,1,0.,12.0,0.,12.0,0.,12.0,0.,12.0
1981-08-29 03:02:39.750 ,5,1,0.,12.0,0.,12.0,0.,12.0,0.,12.0
1981-08-29 03:02:51.750 ,5,0,0.,12.0,0.,12.0,0.,12.0,0.,12.0
1981-08-29 03:03:03.750 ,5,0,0.,12.0,0.,12.0,0.,12.0,0.,12.0
1981-08-29 03:03:15.750 ,5,0,0.,12.0,0.,12.0,0.,12.0,0.,12.0
1981-08-29 03:03:27.750 ,5,0,,0,,0,,0,,0
1981-08-29 03:03:39.750 ,4,0,0.,12.0,0.,12.0,0.,12.0,0.,12.0
1981-08-29 03:03:51.750 ,4,0,0.,12.0,0.,12.0,0.,12.0,0.,12.0
1981-08-29 03:04:03.750 ,3,1,0.,12.0,0.,12.0,0.,12.0,0.,12.0
1981-08-29 03:04:15.750 ,3,1,0.,12.0,0.,12.0,0.,12.0,0.,12.0
1981-08-29 03:04:27.750 ,3,0,0.,12.0,0.,12.0,0.,12.0,0.,12.0
1981-08-29 03:04:39.750 ,3,0,0.,12.0,0.,12.0,0.,12.0,0.,12.0
1981-08-29 03:04:51.750 ,2,1,0.,12.0,0.,12.0,0.,12.0,0.,12.0
1981-08-29 03:05:03.750 ,2,1,0.,12.0,0.,12.0,0.,12.0,0.,12.0
1981-08-29 03:05:15.750 ,2,0,0.,12.0,0.,12.0,0.,12.0,0.,12.0
1981-08-29 03:05:27.750 ,2,0,0.,12.0,0.,12.0,0.,12.0,0.,12.0
1981-08-29 03:05:39.750 ,1,1,0.,12.0,0.,12.0,0.,12.0,0.,12.0
1981-08-29 03:05:51.750 ,1,1,0.,12.0,0.,12.0,0.,12.0,0.,12.0
1981-08-29 03:06:03.750 ,1,0,0.,12.0,0.,12.0,0.,12.0,0.,12.0
1981-08-29 03:06:15.750 ,1,0,0.,12.0,0.,12.0,0.,12.0,0.,12.0
1981-08-29 03:06:27.750 ,0,1,0.,12.0,0.,12.0,0.,12.0,0.,12.0
1981-08-29 03:06:39.750 ,0,1,0.,12.0,0.,12.0,0.,12.0,0.,12.0
1981-08-29 03:06:51.750 ,0,0,0.,12.0,0.,12.0,0.,12.0,0.,12.0
1981-08-29 03:07:03.750 ,0,0,0.,12.0,0.,12.0,0.,12.0,0.,12.0
1981-08-29 03:07:15.750 ,0,1,0.,12.0,0.,12.0,0.,12.0,0.,12.0
1981-08-29 03:07:27.750 ,0,1,0.,12.0,0.,12.0,0.,12.0,0.,12.0
1981-08-29 03:07:39.750 ,0,0,0.,12.0,0.,12.0,0.,12.0,0.,12.0
1981-08-29 03:07:51.750 ,0,0,0.,12.0,0.,12.0,0.,12.0,0.,12.0
1981-08-29 03:08:03.750 ,1,1,0.,12.0,0.,12.0,0.,12.0,0.,12.0
1981-08-29 03:08:15.750 ,1,1,0.,12.0,0.,12.0,0.,12.0,0.,12.0
1981-08-29 03:08:27.750 ,1,0,0.,12.0,0.,12.0,0.,12.0,0.,12.0
1981-08-29 03:08:39.750 ,1,0,0.,12.0,0.,12.0,0.,12.0,0.,12.0
1981-08-29 03:08:51.750 ,2,1,0.,12.0,0.,12.0,0.,12.0,0.,12.0
1981-08-29 03:09:03.750 ,2,1,0.,12.0,0.,12.0,0.,12.0,0.,12.0
1981-08-29 03:09:15.750 ,2,0,0.,12.0,0.,12.0,0.,12.0,0.,12.0
1981-08-29 03:09:27.750 ,2,0,0.,12.0,0.,12.0,0.,12.0,0.,12.0
1981-08-29 03:09:39.750 ,3,1,0.,12.0,0.,12.0,0.,12.0,0.,12.0
1981-08-29 03:09:51.750 ,3,1,0.,12.0,0.,12.0,0.,12.0,0.,12.0
1981-08-29 03:10:03.750 ,3,0,0.,12.0,0.,12.0,0.,12.0,0.,12.0
1981-08-29 03:10:15.750 ,3,0,0.,12.0,0.,12.0,0.,12.0,0.,12.0
1981-08-29 03:10:27.750 ,4,1,0.,12.0,0.,12.0,0.,12.0,0.,12.0
1981-08-29 03:10:39.750 ,4,1,0.,12.0,0.,12.0,0.,12.0,0.,12.0
1981-08-29 03:10:51.750 ,4,0,0.,12.0,0.,12.0,0.,12.0,0.,12.0
1981-08-29 03:11:03.750 ,4,0,0.,12.0,0.,12.0,0.,12.0,0.,12.0
1981-08-29 03:11:15.750 ,5,1,0.,12.0,0.,12.0,0.,12.0,0.,12.0
1981-08-29 03:11:27.750 ,5,1,0.,12.0,0.,12.0,0.,12.0,0.,12.0
1981-08-29 03:11:39.750 ,5,0,0.,12.0,0.,12.0,0.,12.0,0.,12.0
1981-08-29 03:11:51.750 ,5,0,0.,12.0,0.,12.0,0.,12.0,0.,12.0
1981-08-29 03:12:03.750 ,6,1,0.,12.0,0.,12.0,0.,12.0,0.,12.0
1981-08-29 03:12:15.750 ,6,1,0.,12.0,0.,12.0,0.,12.0,0.,12.0
1981-08-29 03:12:27.750 ,6,0,0.,12.0,0.,12.0,0.,12.0,0.,12.0
1981-08-29 03:12:39.750 ,6,0,0.,12.0,0.,12.0,0.,12.0,0.,12.0
1981-08-29 03:12:51.750 ,7,1,0.,12.0,0.,12.0,0.,12.0,0.,12.0
1981-08-29 03:13:03.750 ,7,1,0.,12.0,0.,12.0,0.,12.0,0.,12.0
1981-08-29 03:13:15.750 ,7,0,0.,12.0,0.,12.0,0.,12.0,0.,12.0
1981-08-29 03:13:27.750 ,7,0,0.,12.0,0.,12.0,0.,12.0,0.,12.0
1981-08-29 03:13:39.750 ,7,1,0.,12.0,0.,12.0,0.,12.0,0.,12.0
1981-08-29 03:13:51.750 ,7,1,0.,12.0,0.,12.0,0.,12.0,0.,12.0
1981-08-29 03:14:03.750 ,6,1,0.,12.0,0.,12.0,0.,12.0,0.,12.0
1981-08-29 03:14:15.750 ,6,1,0.,12.0,0.,12.0,0.,12.0,0.,12.0
1981-08-29 03:14:27.750 ,5,1,0.,12.0,0.,12.0,0.,12.0,0.,12.0
1981-08-29 03:14:39.750 ,5,1,0.,12.0,0.,12.0,0.,12.0,0.,12.0
1981-08-29 03:14:51.750 ,4,1,0.,12.0,0.,12.0,0.,12.0,0.,12.0
1981-08-29 03:15:03.750 ,4,1,0.,12.0,0.,12.0,0.,12.0,0.,12.0
1981-08-29 03:15:15.750 ,3,1,0.,12.0,0.,12.0,0.,12.0,0.,12.0
1981-08-29 03:15:27.750 ,3,1,0.,12.0,0.,12.0,0.,12.0,0.,12.0
1981-08-29 03:15:39.750 ,2,1,0.,12.0,0.,12.0,0.,12.0,0.,12.0
1981-08-29 03:15:51.750 ,2,1,0.,12.0,0.,12.0,0.,12.0,0.,12.0
1981-08-29 03:16:03.750 ,1,1,0.,12.0,0.,12.0,0.,12.0,0.,12.0
1981-08-29 03:16:15.750 ,1,1,0.,12.0,0.,12.0,0.,12.0,0.,12.0
1981-08-29 03:16:27.750 ,0,1,0.,12.0,0.,12.0,0.,12.0,0.,12.0
1981-08-29 03:16:39.750 ,0,1,0.,12.0,0.,12.0,0.,12.0,0.,12.0
1981-08-29 03:16:51.750 ,0,1,0.,12.0,0.,12.0,0.,12.0,0.,12.0
1981-08-29 03:17:03.750 ,0,1,0.,12.0,0.,12.0,0.,12.0,0.,12.0
1981-08-29 03:17:15.750 ,1,1,0.,12.0,0.,12.0,0.,12.0,0.,12.0
1981-08-29 03:17:27.750 ,1,1,0.,12.0,0.,12.0,0.,12.0,0.,12.0
1981-08-29 03:17:39.750 ,2,1,0.,12.0,0.,12.0,0.,12.0,0.,12.0
1981-08-29 03:17:51.750 ,2,1,0.,12.0,0.,12.0,0.,12.0,0.,12.0
1981-08-29 03:18:03.750 ,3,1,0.,12.0,0.,12.0,0.,12.0,0.,12.0
1981-08-29 03:18:15.750 ,3,1,0.,12.0,0.,12.0,0.,12.0,0.,12.0
1981-08-29 03:18:27.750 ,4,1,0.,12.0,0.,12.0,0.,12.0,0.,12.0
1981-08-29 03:18:39.750 ,4,1,0.,12.0,0.,12.0,0.,12.0,0.,12.0
1981-08-29 03:18:51.750 ,5,1,0.,12.0,0.,12.0,0.,12.0,0.,12.0
1981-08-29 03:19:03.750 ,5,1,0.,12.0,0.,12.0,0.,12.0,0.,12.0
1981-08-29 03:19:15.750 ,6,1,0.,12.0,0.,12.0,0.,12.0,0.,12.0
1981-08-29 03:19:27.750 ,6,1,0.,12.0,0.,12.0,0.,12.0,0.,12.0
1981-08-29 03:19:39.750 ,7,1,0.,12.0,0.,12.0,0.,12.0,0.,12.0
1981-08-29 03:19:51.750 ,7,1,0.,12.0,0.,12.0,0.,12.0,0.,12.0
1981-08-29 03:20:03.750 ,7,1,0.,12.0,0.,12.0,0.,12.0,0.,12.0
1981-08-29 03:20:15.750 ,7,1,0.,12.0,0.,12.0,0.,12.0,0.,12.0
1981-08-29 03:20:27.750 ,7,0,0.,12.0,0.,12.0,0.,12.0,0.,12.0
1981-08-29 03:20:39.750 ,7,0,0.,12.0,0.,12.0,0.,12.0,0.,12.0
1981-08-29 03:20:51.750 ,6,1,0.,12.0,0.,12.0,0.,12.0,0.,12.0
1981-08-29 03:21:03.750 ,6,1,0.,12.0,0.,12.0,0.,12.0,0.,12.0
1981-08-29 03:21:15.750 ,6,0,0.,12.0,0.,12.0,0.,12.0,0.,12.0
1981-08-29 03:21:27.750 ,6,0,0.,12.0,0.,12.0,0.,12.0,0.,12.0
1981-08-29 03:21:39.750 ,5,1,0.,12.0,0.,12.0,0.,12.0,0.,12.0
1981-08-29 03:21:51.750 ,5,1,0.,12.0,0.,12.0,0.,12.0,0.,12.0
1981-08-29 03:22:03.750 ,5,0,0.,12.0,0.,12.0,0.,12.0,0.,12.0
1981-08-29 03:22:15.750 ,5,0,0.,12.0,0.,12.0,0.,12.0,0.,12.0
1981-08-29 03:22:27.750 ,4,1,0.,12.0,0.,12.0,0.,12.0,0.,12.0
1981-08-29 03:22:39.750 ,4,1,0.,12.0,0.,12.0,0.,12.0,0.,12.0
1981-08-29 03:22:51.750 ,4,0,0.,12.0,0.,12.0,0.,12.0,0.,12.0
1981-08-29 03:23:03.750 ,4,0,0.,12.0,0.,12.0,0.,12.0,0.,12.0
1981-08-29 03:23:15.750 ,3,1,0.,12.0,0.,12.0,0.,12.0,0.,12.0
1981-08-29 03:23:27.750 ,3,1,0.,12.0,0.,12.0,0.,12.0,0.,12.0
1981-08-29 03:23:39.750 ,3,0,0.,12.0,0.,12.0,0.,12.0,0.,12.0
1981-08-29 03:23:51.750 ,3,0,0.,12.0,0.,12.0,0.,12.0,0.,12.0
1981-08-29 03:24:03.750 ,2,1,0.,12.0,0.,12.0,0.,12.0,0.,12.0
1981-08-29 03:24:15.750 ,2,1,0.,12.0,0.,12.0,0.,12.0,0.,12.0
1981-08-29 03:24:27.750 ,2,0,0.,12.0,0.,12.0,0.,12.0,0.,12.0
1981-08-29 03:24:39.750 ,2,0,0.,12.0,0.,12.0,0.,12.0,0.,12.0
1981-08-29 03:24:51.750 ,1,1,0.,12.0,0.,12.0,0.,12.0,0.,12.0
1981-08-29 03:25:03.750 ,1,1,0.,12.0,0.,12.0,0.,12.0,0.,12.0
1981-08-29 03:25:15.750 ,1,0,0.,12.0,0.,12.0,0.,12.0,0.,12.0
1981-08-29 03:25:27.750 ,1,0,0.,12.0,0.,12.0,0.,12.0,0.,12.0
1981-08-29 03:25:39.750 ,0,1,0.,12.0,0.,12.0,0.,12.0,0.,12.0
1981-08-29 03:25:51.750 ,0,1,0.,12.0,0.,12.0,0.,12.0,0.,12.0
1981-08-29 03:26:03.750 ,0,0,0.,12.0,0.,12.0,0.,12.0,0.,12.0
1981-08-29 03:26:15.750 ,0,0,0.,12.0,0.,12.0,0.,12.0,0.,12.0
1981-08-29 03:26:27.750 ,0,1,0.,12.0,0.,12.0,0.,12.0,0.,12.0
1981-08-29 03:26:39.750 ,0,1,0.,12.0,0.,12.0,0.,12.0,0.,12.0
1981-08-29 03:26:51.750 ,0,0,0.,12.0,0.,12.0,0.,12.0,0.,12.0
1981-08-29 03:27:03.750 ,0,0,0.,12.0,0.,12.0,0.,12.0,0.,12.0
1981-08-29 03:27:15.750 ,1,1,0.,12.0,0.,12.0,0.,12.0,0.,12.0
1981-08-29 03:27:27.750 ,1,1,0.,12.0,0.,12.0,0.,12.0,0.,12.0
1981-08-29 03:27:39.750 ,1,0,0.,12.0,0.,12.0,0.,12.0,0.,12.0
1981-08-29 03:27:51.750 ,1,0,0.,12.0,0.,12.0,0.,12.0,0.,12.0
1981-08-29 03:28:03.750 ,2,1,0.,12.0,0.,12.0,0.,12.0,0.,12.0
1981-08-29 03:28:15.750 ,2,1,0.,12.0,0.,12.0,0.,12.0,0.,12.0
1981-08-29 03:28:27.750 ,2,0,0.,12.0,0.,12.0,0.,12.0,0.,12.0
1981-08-29 03:28:39.750 ,2,0,0.,12.0,0.,12.0,0.,12.0,0.,12.0
1981-08-29 03:28:51.750 ,3,1,0.,12.0,0.,12.0,0.,12.0,0.,12.0
1981-08-29 03:29:03.750 ,3,1,0.,12.0,0.,12.0,0.,12.0,0.,12.0
1981-08-29 03:29:15.750 ,3,0,0.,12.0,0.,12.0,0.,12.0,0.,12.0
1981-08-29 03:29:27.750 ,3,0,0.,12.0,0.,12.0,0.,12.0,0.,12.0
1981-08-29 03:29:39.750 ,4,1,0.,12.0,0.,12.0,0.,12.0,0.,12.0
1981-08-29 03:29:51.750 ,4,1,0.,12.0,0.,12.0,0.,12.0,0.,12.0
1981-08-29 03:30:03.750 ,4,0,0.,12.0,0.,12.0,0.,12.0,0.,12.0
1981-08-29 03:30:15.750 ,4,0,0.,12.0,0.,12.0,0.,12.0,0.,12.0
1981-08-29 03:30:27.750 ,5,1,0.,12.0,0.,12.0,0.,12.0,0.,12.0
1981-08-29 03:30:39.750 ,5,1,0.,12.0,0.,12.0,0.,12.0,0.,12.0
1981-08-29 03:30:51.750 ,5,0,0.,12.0,0.,12.0,0.,12.0,0.,12.0
1981-08-29 03:31:03.750 ,5,0,0.,12.0,0.,12.0,0.,12.0,0.,12.0
1981-08-29 03:31:15.750 ,6,1,0.,12.0,0.,12.0,0.,12.0,0.,12.0
1981-08-29 03:31:27.750 ,6,1,0.,12.0,0.,12.0,0.,12.0,0.,12.0
1981-08-29 03:31:39.750 ,6,0,0.,12.0,0.,12.0,0.,12.0,0.,12.0
1981-08-29 03:31:51.750 ,6,0,0.,12.0,0.,12.0,0.,12.0,0.,12.0
1981-08-29 03:32:03.750 ,7,1,0.,12.0,0.,12.0,0.,12.0,0.,12.0
1981-08-29 03:32:15.750 ,7,1,0.,12.0,0.,12.0,0.,12.0,0.,12.0
1981-08-29 03:32:27.750 ,7,0,0.,12.0,0.,12.0,0.,12.0,0.,12.0
1981-08-29 03:32:39.750 ,7,0,0.,12.0,0.,12.0,0.,12.0,0.,12.0
1981-08-29 03:32:51.750 ,7,1,0.,12.0,0.,12.0,0.,12.0,0.,12.0
1981-08-29 03:33:03.750 ,7,1,0.,12.0,0.,12.0,0.,12.0,0.,12.0
1981-08-29 03:33:15.750 ,6,1,0.,12.0,0.,12.0,0.,12.0,0.,12.0
1981-08-29 03:33:27.750 ,6,1,0.,12.0,0.,12.0,0.,12.0,0.,12.0
1981-08-29 03:33:39.750 ,5,1,0.,12.0,0.,12.0,0.,12.0,0.,12.0
1981-08-29 03:33:51.750 ,5,1,0.,12.0,0.,12.0,0.,12.0,0.,12.0
1981-08-29 03:34:03.750 ,4,1,0.,12.0,0.,12.0,0.,12.0,0.,12.0
1981-08-29 03:34:15.750 ,4,1,0.,12.0,0.,12.0,0.,12.0,0.,12.0
1981-08-29 03:34:27.750 ,3,1,0.,12.0,0.,12.0,0.,12.0,0.,12.0
1981-08-29 03:34:39.750 ,3,1,0.,12.0,0.,12.0,0.,12.0,0.,12.0
1981-08-29 03:34:51.750 ,2,1,0.,12.0,0.,12.0,0.,12.0,0.,12.0
1981-08-29 03:35:03.750 ,2,1,0.,12.0,0.,12.0,0.,12.0,0.,12.0
1981-08-29 03:35:15.750 ,1,1,0.,12.0,0.,12.0,0.,12.0,0.,12.0
1981-08-29 03:35:27.750 ,1,1,0.,12.0,0.,12.0,0.,12.0,0.,12.0
1981-08-29 03:35:39.750 ,0,1,0.,12.0,0.,12.0,0.,12.0,0.,12.0
1981-08-29 03:35:51.750 ,0,1,0.,12.0,0.,12.0,0.,12.0,0.,12.0
1981-08-29 03:36:03.750 ,0,1,0.,12.0,0.,12.0,0.,12.0,0.,12.0
1981-08-29 03:36:15.750 ,0,1,0.,12.0,0.,12.0,0.,12.0,0.,12.0
1981-08-29 03:36:27.750 ,1,1,0.,12.0,0.,12.0,0.,12.0,0.,12.0
1981-08-29 03:36:39.750 ,1,1,0.,12.0,0.,12.0,0.,12.0,0.,12.0
1981-08-29 03:36:51.750 ,2,1,0.,12.0,0.,12.0,0.,12.0,0.,12.0
1981-08-29 03:37:03.750 ,2,1,0.,12.0,0.,12.0,0.,12.0,0.,12.0
1981-08-29 03:37:15.750 ,3,1,0.,12.0,0.,12.0,0.,12.0,0.,12.0
1981-08-29 03:37:27.750 ,3,1,0.,12.0,0.,12.0,0.,12.0,0.,12.0
1981-08-29 03:37:39.750 ,4,1,0.,12.0,0.,12.0,0.,12.0,0.,12.0
1981-08-29 03:37:51.750 ,4,1,0.,12.0,0.,12.0,0.,12.0,0.,12.0
1981-08-29 03:38:03.750 ,5,1,0.,12.0,0.,12.0,0.,12.0,0.,12.0
1981-08-29 03:38:15.750 ,5,1,1.,12.0,0.,12.0,0.,12.0,0.,12.0
1981-08-29 03:38:27.750 ,6,1,0.,12.0,0.,12.0,0.,12.0,0.,12.0
1981-08-29 03:38:39.750 ,6,1,0.,12.0,0.,12.0,0.,12.0,0.,12.0
1981-08-29 03:38:51.750 ,7,1,0.,12.0,0.,12.0,0.,12.0,0.,12.0
1981-08-29 03:39:03.750 ,7,1,0.,12.0,0.,12.0,0.,12.0,0.,12.0
1981-08-29 03:39:15.750 ,7,1,0.,12.0,0.,12.0,0.,12.0,0.,12.0
1981-08-29 03:39:27.750 ,7,1,0.,12.0,0.,12.0,0.,12.0,0.,12.0
1981-08-29 03:39:39.750 ,7,0,0.,12.0,0.,12.0,0.,12.0,0.,12.0
1981-08-29 03:39:51.750 ,7,0,0.,12.0,0.,12.0,0.,12.0,0.,12.0
1981-08-29 03:40:03.750 ,6,1,0.,12.0,0.,12.0,0.,12.0,0.,12.0
1981-08-29 03:40:15.750 ,6,1,0.,12.0,0.,12.0,0.,12.0,0.,12.0
1981-08-29 03:40:27.750 ,6,0,0.,12.0,0.,12.0,0.,12.0,0.,12.0
1981-08-29 03:40:39.750 ,6,0,0.,12.0,0.,12.0,0.,12.0,0.,12.0
1981-08-29 03:40:51.750 ,5,1,0.,12.0,0.,12.0,0.,12.0,0.,12.0
1981-08-29 03:41:03.750 ,5,1,0.,12.0,0.,12.0,0.,12.0,0.,12.0
1981-08-29 03:41:15.750 ,5,0,0.,12.0,0.,12.0,0.,12.0,0.,12.0
1981-08-29 03:41:27.750 ,5,0,0.,12.0,0.,12.0,0.,12.0,0.,12.0
1981-08-29 03:41:39.750 ,4,1,0.,12.0,0.,12.0,0.,12.0,0.,12.0
1981-08-29 03:41:51.750 ,4,1,0.,12.0,0.,12.0,0.,12.0,0.,12.0
1981-08-29 03:42:03.750 ,4,0,0.,12.0,0.,12.0,0.,12.0,0.,12.0
1981-08-29 03:42:15.750 ,4,0,0.,12.0,0.,12.0,0.,12.0,0.,12.0
1981-08-29 03:42:27.750 ,3,1,0.,12.0,0.,12.0,0.,12.0,0.,12.0
1981-08-29 03:42:39.750 ,3,1,0.,12.0,0.,12.0,0.,12.0,0.,12.0
1981-08-29 03:42:51.750 ,3,0,0.,12.0,0.,12.0,0.,12.0,0.,12.0
1981-08-29 03:43:03.750 ,3,0,0.,12.0,0.,12.0,0.,12.0,0.,12.0
1981-08-29 03:43:15.750 ,2,1,0.,12.0,0.,12.0,0.,12.0,0.,12.0
1981-08-29 03:43:27.750 ,2,1,0.,12.0,0.,12.0,0.,12.0,0.,12.0
1981-08-29 03:43:39.750 ,2,0,0.,12.0,0.,12.0,0.,12.0,0.,12.0
1981-08-29 03:43:51.750 ,2,0,0.,12.0,0.,12.0,0.,12.0,0.,12.0
1981-08-29 03:44:03.750 ,1,1,0.,12.0,0.,12.0,0.,12.0,0.,12.0
1981-08-29 03:44:15.750 ,1,1,0.,12.0,0.,12.0,0.,12.0,0.,12.0
1981-08-29 03:44:27.750 ,1,0,0.,12.0,0.,12.0,0.,12.0,0.,12.0
1981-08-29 03:44:39.750 ,1,0,0.,12.0,0.,12.0,0.,12.0,0.,12.0
1981-08-29 03:44:51.750 ,0,1,0.,12.0,0.,12.0,0.,12.0,0.,12.0
1981-08-29 03:45:03.750 ,0,1,0.,12.0,0.,12.0,0.,12.0,0.,12.0
1981-08-29 03:45:15.750 ,0,0,0.,12.0,0.,12.0,0.,12.0,0.,12.0
1981-08-29 03:45:27.750 ,0,0,0.,12.0,0.,12.0,0.,12.0,0.,12.0
1981-08-29 03:45:39.750 ,0,1,0.,12.0,0.,12.0,0.,12.0,0.,12.0
1981-08-29 03:45:51.750 ,0,1,0.,12.0,0.,12.0,0.,12.0,0.,12.0
1981-08-29 03:46:03.750 ,0,0,0.,12.0,0.,12.0,0.,12.0,0.,12.0
1981-08-29 03:46:15.750 ,0,0,0.,12.0,0.,12.0,0.,12.0,0.,12.0
1981-08-29 03:46:27.750 ,1,1,0.,12.0,0.,12.0,0.,12.0,0.,12.0
1981-08-29 03:46:39.750 ,1,1,0.,12.0,0.,12.0,0.,12.0,0.,12.0
1981-08-29 03:46:51.750 ,1,0,0.,12.0,0.,12.0,0.,12.0,0.,12.0
1981-08-29 03:47:03.750 ,1,0,0.,12.0,0.,12.0,0.,12.0,0.,12.0
1981-08-29 03:47:15.750 ,2,1,0.,12.0,0.,12.0,0.,12.0,0.,12.0
1981-08-29 03:47:27.750 ,2,1,0.,12.0,0.,12.0,0.,12.0,0.,12.0
1981-08-29 03:47:39.750 ,2,0,0.,12.0,0.,12.0,0.,12.0,0.,12.0
1981-08-29 03:47:51.750 ,2,0,0.,12.0,0.,12.0,0.,12.0,0.,12.0
1981-08-29 03:48:03.750 ,3,1,0.,12.0,0.,12.0,0.,12.0,0.,12.0
1981-08-29 03:48:15.750 ,3,1,0.,12.0,0.,12.0,0.,12.0,0.,12.0
1981-08-29 03:48:27.750 ,3,0,0.,12.0,0.,12.0,0.,12.0,0.,12.0
1981-08-29 03:48:39.750 ,3,0,0.,12.0,0.,12.0,0.,12.0,0.,12.0
1981-08-29 03:48:51.750 ,4,1,0.,12.0,0.,12.0,0.,12.0,0.,12.0
1981-08-29 03:49:03.750 ,4,1,0.,12.0,0.,12.0,0.,12.0,0.,12.0
1981-08-29 03:49:15.750 ,4,0,0.,12.0,0.,12.0,0.,12.0,0.,12.0
1981-08-29 03:49:27.750 ,4,0,0.,12.0,0.,12.0,0.,12.0,0.,12.0
1981-08-29 03:49:39.750 ,5,1,0.,12.0,0.,12.0,0.,12.0,0.,12.0
1981-08-29 03:49:51.750 ,5,1,0.,12.0,0.,12.0,0.,12.0,0.,12.0
1981-08-29 03:50:03.750 ,5,0,0.,12.0,0.,12.0,0.,12.0,0.,12.0
1981-08-29 03:50:15.750 ,5,0,0.,12.0,0.,12.0,0.,12.0,0.,12.0
1981-08-29 03:50:27.750 ,6,1,0.,12.0,0.,12.0,0.,12.0,0.,12.0
1981-08-29 03:50:39.750 ,6,1,0.,12.0,0.,12.0,0.,12.0,0.,12.0
1981-08-29 03:50:51.750 ,6,0,0.,12.0,0.,12.0,0.,12.0,0.,12.0
1981-08-29 03:51:03.750 ,6,0,0.,12.0,0.,12.0,0.,12.0,0.,12.0
1981-08-29 03:51:15.750 ,7,1,0.,12.0,0.,12.0,0.,12.0,0.,12.0
1981-08-29 03:51:27.750 ,7,1,0.,12.0,0.,12.0,0.,12.0,0.,12.0
1981-08-29 03:51:39.750 ,7,0,0.,12.0,0.,12.0,0.,12.0,0.,12.0
1981-08-29 03:51:51.750 ,7,0,0.,12.0,0.,12.0,0.,12.0,0.,12.0
1981-08-29 03:52:03.750 ,7,1,0.,12.0,0.,12.0,0.,12.0,0.,12.0
1981-08-29 03:52:15.750 ,7,1,0.,12.0,0.,12.0,0.,12.0,0.,12.0
1981-08-29 03:52:27.750 ,6,1,0.,12.0,0.,12.0,0.,12.0,0.,12.0
1981-08-29 03:52:39.750 ,6,1,0.,12.0,0.,12.0,0.,12.0,0.,12.0
1981-08-29 03:52:51.750 ,5,1,0.,12.0,0.,12.0,0.,12.0,0.,12.0
1981-08-29 03:53:03.750 ,5,1,0.,12.0,0.,12.0,0.,12.0,0.,12.0
1981-08-29 03:53:15.750 ,4,1,0.,12.0,0.,12.0,0.,12.0,0.,12.0
1981-08-29 03:53:27.750 ,4,1,0.,12.0,0.,12.0,0.,12.0,0.,12.0
1981-08-29 03:53:39.750 ,3,1,0.,12.0,0.,12.0,0.,12.0,0.,12.0
1981-08-29 03:53:51.750 ,3,1,0.,12.0,0.,12.0,0.,12.0,0.,12.0
1981-08-29 03:54:03.750 ,2,1,0.,12.0,0.,12.0,0.,12.0,0.,12.0
1981-08-29 03:54:15.750 ,2,1,0.,12.0,0.,12.0,0.,12.0,0.,12.0
1981-08-29 03:54:27.750 ,1,1,0.,12.0,0.,12.0,0.,12.0,0.,12.0
1981-08-29 03:54:39.750 ,1,1,0.,12.0,0.,12.0,0.,12.0,0.,12.0
1981-08-29 03:54:51.750 ,0,1,0.,12.0,0.,12.0,0.,12.0,0.,12.0
1981-08-29 03:55:03.750 ,0,1,0.,12.0,0.,12.0,0.,12.0,0.,12.0
1981-08-29 03:55:15.750 ,0,1,0.,12.0,0.,12.0,0.,12.0,0.,12.0
1981-08-29 03:55:27.750 ,0,1,0.,12.0,0.,12.0,0.,12.0,0.,12.0
1981-08-29 03:55:39.750 ,1,1,0.,12.0,0.,12.0,0.,12.0,0.,12.0
1981-08-29 03:55:51.750 ,1,1,0.,12.0,0.,12.0,0.,12.0,0.,12.0
1981-08-29 03:56:03.750 ,2,1,0.,12.0,0.,12.0,0.,12.0,0.,12.0
1981-08-29 03:56:15.750 ,2,1,0.,12.0,0.,12.0,0.,12.0,0.,12.0
1981-08-29 03:56:27.750 ,3,1,0.,12.0,0.,12.0,0.,12.0,0.,12.0
1981-08-29 03:56:39.750 ,3,1,0.,12.0,0.,12.0,0.,12.0,0.,12.0
1981-08-29 03:56:51.750 ,4,1,0.,12.0,0.,12.0,0.,12.0,0.,12.0
1981-08-29 03:57:03.750 ,4,1,0.,12.0,0.,12.0,0.,12.0,0.,12.0
1981-08-29 03:57:15.750 ,5,1,0.,12.0,0.,12.0,0.,12.0,0.,12.0
1981-08-29 03:57:27.750 ,5,1,0.,12.0,0.,12.0,0.,12.0,0.,12.0
1981-08-29 03:57:39.750 ,6,1,0.,12.0,0.,12.0,0.,12.0,0.,12.0
1981-08-29 03:57:51.750 ,6,1,0.,12.0,0.,12.0,0.,12.0,0.,12.0
1981-08-29 03:58:03.750 ,7,1,0.,12.0,0.,12.0,0.,12.0,0.,12.0
1981-08-29 03:58:15.750 ,7,1,0.,12.0,0.,12.0,0.,12.0,0.,12.0
1981-08-29 03:58:27.750 ,7,1,0.,12.0,0.,12.0,0.,12.0,0.,12.0
1981-08-29 03:58:39.750 ,7,1,0.,12.0,0.,12.0,0.,12.0,0.,12.0
1981-08-29 03:58:51.750 ,7,0,0.,12.0,0.,12.0,0.,12.0,0.,12.0
1981-08-29 03:59:03.750 ,7,0,0.,12.0,0.,12.0,0.,12.0,0.,12.0
1981-08-29 03:59:15.750 ,6,1,0.,12.0,0.,12.0,0.,12.0,0.,12.0
1981-08-29 03:59:27.750 ,6,1,0.,12.0,0.,12.0,0.,12.0,0.,12.0
1981-08-29 03:59:39.750 ,6,0,0.,12.0,0.,12.0,0.,12.0,0.,12.0
1981-08-29 03:59:51.750 ,6,0,0.,12.0,0.,12.0,0.,12.0,0.,12.0
1981-08-29 04:00:03.750 ,5,1,0.,12.0,0.,12.0,0.,12.0,0.,12.0
1981-08-29 04:00:15.750 ,5,1,0.,12.0,0.,12.0,0.,12.0,0.,12.0
1981-08-29 04:00:27.750 ,5,0,0.,12.0,0.,12.0,0.,12.0,0.,12.0
1981-08-29 04:00:39.750 ,5,0,0.,12.0,0.,12.0,0.,12.0,0.,12.0
1981-08-29 04:00:51.750 ,4,1,0.,12.0,0.,12.0,0.,12.0,0.,12.0
1981-08-29 04:01:03.750 ,4,1,0.,12.0,0.,12.0,0.,12.0,0.,12.0
1981-08-29 04:01:15.750 ,4,0,0.,12.0,0.,12.0,0.,12.0,0.,12.0
1981-08-29 04:01:27.750 ,4,0,0.,12.0,0.,12.0,0.,12.0,0.,12.0
1981-08-29 04:01:39.750 ,3,1,0.,12.0,0.,12.0,0.,12.0,0.,12.0
1981-08-29 04:01:51.750 ,3,1,0.,12.0,0.,12.0,0.,12.0,0.,12.0
1981-08-29 04:02:03.750 ,3,0,0.,12.0,0.,12.0,0.,12.0,0.,12.0
1981-08-29 04:02:15.750 ,3,0,0.,12.0,0.,12.0,0.,12.0,0.,12.0
1981-08-29 04:02:27.750 ,2,1,0.,12.0,0.,12.0,0.,12.0,0.,12.0
1981-08-29 04:02:39.750 ,2,1,0.,12.0,0.,12.0,0.,12.0,0.,12.0
1981-08-29 04:02:51.750 ,2,0,0.,12.0,0.,12.0,0.,12.0,0.,12.0
1981-08-29 04:03:03.750 ,2,0,0.,12.0,0.,12.0,0.,12.0,0.,12.0
1981-08-29 04:03:15.750 ,1,1,0.,12.0,0.,12.0,0.,12.0,0.,12.0
1981-08-29 04:03:27.750 ,1,1,0.,12.0,0.,12.0,0.,12.0,0.,12.0
1981-08-29 04:03:39.750 ,1,0,0.,12.0,0.,12.0,0.,12.0,0.,12.0
1981-08-29 04:03:51.750 ,1,0,0.,12.0,0.,12.0,0.,12.0,0.,12.0
1981-08-29 04:04:03.750 ,0,1,0.,12.0,0.,12.0,0.,12.0,0.,12.0
1981-08-29 04:04:15.750 ,0,1,0.,12.0,0.,12.0,0.,12.0,0.,12.0
1981-08-29 04:04:27.750 ,0,0,0.,12.0,0.,12.0,0.,12.0,0.,12.0
1981-08-29 04:04:39.750 ,0,0,0.,12.0,0.,12.0,0.,12.0,0.,12.0
1981-08-29 04:05:05.550 ,0,0,,0,,0,,0,,0
1981-08-29 04:05:17.550 ,0,0,0.,12.0,0.,12.0,0.,12.0,0.,12.0
1981-08-29 04:05:15.750 ,0,0,0.,12.0,0.,12.0,0.,12.0,0.,12.0
1981-08-29 04:05:27.750 ,0,0,0.,12.0,0.,12.0,0.,12.0,0.,12.0
1981-08-29 04:05:39.750 ,1,1,0.,12.0,0.,12.0,0.,12.0,0.,12.0
1981-08-29 04:05:51.750 ,1,1,0.,12.0,0.,12.0,0.,12.0,0.,12.0
1981-08-29 04:06:03.750 ,1,0,0.,12.0,0.,12.0,0.,12.0,0.,12.0
1981-08-29 04:06:15.750 ,1,0,0.,12.0,0.,12.0,0.,12.0,0.,12.0
1981-08-29 04:06:27.750 ,2,1,0.,12.0,0.,12.0,0.,12.0,0.,12.0
1981-08-29 04:06:39.750 ,2,1,0.,12.0,0.,12.0,0.,12.0,0.,12.0
1981-08-29 04:06:51.750 ,2,0,0.,12.0,0.,12.0,0.,12.0,0.,12.0
1981-08-29 04:07:03.750 ,2,0,0.,12.0,0.,12.0,0.,12.0,0.,12.0
1981-08-29 04:07:15.750 ,3,1,0.,12.0,0.,12.0,0.,12.0,0.,12.0
1981-08-29 04:07:27.750 ,3,1,0.,12.0,0.,12.0,0.,12.0,0.,12.0
1981-08-29 04:07:39.750 ,3,0,0.,12.0,0.,12.0,0.,12.0,0.,12.0
1981-08-29 04:07:51.750 ,3,0,0.,12.0,0.,12.0,0.,12.0,0.,12.0
1981-08-29 04:08:03.750 ,4,1,0.,12.0,0.,12.0,0.,12.0,0.,12.0
1981-08-29 04:08:15.750 ,4,1,0.,12.0,0.,12.0,0.,12.0,0.,12.0
1981-08-29 04:08:27.750 ,4,0,0.,12.0,0.,12.0,0.,12.0,0.,12.0
1981-08-29 04:08:39.750 ,4,0,0.,12.0,0.,12.0,0.,12.0,0.,12.0
1981-08-29 04:08:51.750 ,5,1,0.,12.0,0.,12.0,0.,12.0,0.,12.0
1981-08-29 04:09:03.750 ,5,1,0.,12.0,0.,12.0,0.,12.0,0.,12.0
1981-08-29 04:09:15.750 ,5,0,0.,12.0,0.,12.0,0.,12.0,0.,12.0
1981-08-29 04:09:27.750 ,5,0,0.,12.0,0.,12.0,0.,12.0,0.,12.0
1981-08-29 04:09:39.750 ,6,1,0.,12.0,0.,12.0,0.,12.0,0.,12.0
1981-08-29 04:09:51.750 ,6,1,0.,12.0,0.,12.0,0.,12.0,0.,12.0
1981-08-29 04:10:03.750 ,6,0,0.,12.0,0.,12.0,0.,12.0,0.,12.0
1981-08-29 04:10:15.750 ,6,0,0.,12.0,0.,12.0,0.,12.0,0.,12.0
1981-08-29 04:10:27.750 ,7,1,0.,12.0,0.,12.0,0.,12.0,0.,12.0
1981-08-29 04:10:39.750 ,7,1,0.,12.0,0.,12.0,0.,12.0,0.,12.0
1981-08-29 04:10:51.750 ,7,0,0.,12.0,0.,12.0,0.,12.0,0.,12.0
1981-08-29 04:11:03.750 ,7,0,0.,12.0,0.,12.0,0.,12.0,0.,12.0
1981-08-29 04:11:15.750 ,7,1,0.,12.0,0.,12.0,0.,12.0,0.,12.0
1981-08-29 04:11:27.750 ,7,1,0.,12.0,0.,12.0,0.,12.0,0.,12.0
1981-08-29 04:11:39.750 ,6,1,0.,12.0,0.,12.0,0.,12.0,0.,12.0
1981-08-29 04:11:51.750 ,6,1,0.,12.0,0.,12.0,0.,12.0,0.,12.0
1981-08-29 04:12:03.750 ,5,1,0.,12.0,0.,12.0,0.,12.0,0.,12.0
1981-08-29 04:12:15.750 ,5,1,0.,12.0,0.,12.0,0.,12.0,0.,12.0
1981-08-29 04:12:27.750 ,4,1,0.,12.0,0.,12.0,0.,12.0,0.,12.0
1981-08-29 04:12:39.750 ,4,1,0.,12.0,0.,12.0,0.,12.0,0.,12.0
1981-08-29 04:12:51.750 ,3,1,0.,12.0,0.,12.0,0.,12.0,0.,12.0
1981-08-29 04:13:03.750 ,3,1,0.,12.0,0.,12.0,0.,12.0,0.,12.0
1981-08-29 04:13:15.750 ,2,1,0.,12.0,0.,12.0,0.,12.0,0.,12.0
1981-08-29 04:13:27.750 ,2,1,0.,12.0,0.,12.0,0.,12.0,0.,12.0
1981-08-29 04:13:39.750 ,1,1,0.,12.0,0.,12.0,0.,12.0,0.,12.0
1981-08-29 04:13:51.750 ,1,1,0.,12.0,0.,12.0,0.,12.0,0.,12.0
1981-08-29 04:14:03.750 ,0,1,0.,12.0,0.,12.0,0.,12.0,0.,12.0
1981-08-29 04:14:15.750 ,0,1,0.,12.0,0.,12.0,0.,12.0,0.,12.0
1981-08-29 04:14:27.750 ,0,1,0.,12.0,0.,12.0,0.,12.0,0.,12.0
1981-08-29 04:14:39.750 ,0,1,0.,12.0,0.,12.0,0.,12.0,0.,12.0
1981-08-29 04:14:51.750 ,1,1,0.,12.0,0.,12.0,0.,12.0,0.,12.0
1981-08-29 04:15:03.750 ,1,1,0.,12.0,0.,12.0,0.,12.0,0.,12.0
1981-08-29 04:15:15.750 ,2,1,0.,12.0,0.,12.0,0.,12.0,0.,12.0
1981-08-29 04:15:27.750 ,2,1,0.,12.0,0.,12.0,0.,12.0,0.,12.0
1981-08-29 04:15:39.750 ,3,1,0.,12.0,0.,12.0,0.,12.0,0.,12.0
1981-08-29 04:15:51.750 ,3,1,0.,12.0,0.,12.0,0.,12.0,0.,12.0
1981-08-29 04:16:03.750 ,4,1,0.,12.0,0.,12.0,0.,12.0,0.,12.0
1981-08-29 04:16:15.750 ,4,1,0.,12.0,0.,12.0,0.,12.0,0.,12.0
1981-08-29 04:16:27.750 ,5,1,0.,12.0,0.,12.0,0.,12.0,0.,12.0
1981-08-29 04:16:39.750 ,5,1,0.,12.0,0.,12.0,0.,12.0,0.,12.0
1981-08-29 04:16:51.750 ,6,1,0.,12.0,0.,12.0,0.,12.0,0.,12.0
1981-08-29 04:17:03.750 ,6,1,0.,12.0,0.,12.0,0.,12.0,0.,12.0
1981-08-29 04:17:15.750 ,7,1,0.,12.0,0.,12.0,0.,12.0,0.,12.0
1981-08-29 04:17:27.750 ,7,1,0.,12.0,0.,12.0,0.,12.0,0.,12.0